www.pogodaiklimat.ru

Погода и климат >> Архив погоды >> Россия >> Чукотка >> Островное


АРХИВ ПОГОДЫ в Островном

Время (UTC), дата Ветер
(напр.,м/с)
 
Видим.   Явления Облачность Т
(С)
Тd
(С)
f
(%)
Тe
(С)
Тes
(С)
Комфортность P
(гПа)
Po
(гПа)
Тmin
(С)
Tmax
(С)
R
(мм)
R24
(мм)
S
(см)
12 17.03 В 1
{2}
50 км ясно -37.0 -40.4 70 -42 -42 опасность
обморожения
1017.2 1003.3
15 17.03 штиль 0
{2}
50 км ясно -41.4 -46.3 59 -41 -41 опасность
обморожения
1016.9 1002.8
18 17.03 штиль 0
{1}
50 км ясно -43.3 -49.0 53 -43 -43 опасность
обморожения
1016.6 1002.4
21 17.03 штиль 0
{2}
50 км 10/10 600 м
[Sc]
-41.4 -46.3 59 -41 -41 опасность
обморожения
1015.7 1001.6 -44.2 47
00 18.03 З 2
{7}
50 км 9/3 600 м
[Sc Ac trans Ci fib]
-30.7 -35.9 60 -38 -37 опасность
обморожения
1013.1 999.7
03 18.03 З 4
{7}
20 км слаб. снег 10/6 600 м
[Sc Ac trans Cs]
-26.1 -30.7 65 -36 -36 опасность
обморожения
1011.3 998.1
06 18.03 З 5
{9}
20 км слаб. снег {метель} 10/8 600 м
[Sc Ac trans Cs]
-27.3 -31.2 69 -39 -39 опасность
обморожения
1010.8 997.5
09 18.03 З 5
{9}
20 км слаб. снег {метель} 10/8 600 м
[Sc Ac As]
-28.1 -31.8 70 -40 -40 опасность
обморожения
1011.0 997.7 -26.0 0.4
12 18.03 З 3
{7}
20 км слаб. снег {метель} 10/6 600 м
[Sc Ac trans Cs]
-26.4 -30.2 70 -35 -35 опасность
обморожения
1010.7 997.5
15 18.03 З 3
{7}
20 км слаб. снег 10/6 600 м
[Sc Ac trans Cs]
-25.2 -29.1 70 -34 -34 опасность
обморожения
1010.9 997.7
18 18.03 СЗ 4
{8}
20 км снежные кристаллы 10/6 600 м
[Sc Ac trans Cs]
-25.0 -28.1 75 -35 -35 опасность
обморожения
1011.5 998.5
21 18.03 З 4
{8}
50 км {снег} 9/3 600 м
[Sc Ac trans Ci fib]
-26.1 -30.0 70 -36 -36 опасность
обморожения
1013.2 1000.0 -28.1 0.2 43
00 19.03 З 4
{9}
50 км {снег} 8/3 600 м
[Sc Ac trans Ci fib]
-25.0 -30.5 60 -35 -34 опасность
обморожения
1014.5 1001.3
03 19.03 З 5
{11}
50 км 9/4 600 м
[Sc Ac trans Ci fib]
-24.3 -29.8 60 -35 -35 опасность
обморожения
1015.2 1002.2
06 19.03 СЗ 6
{11}
50 км 8/3 600 м
[Sc Ac trans Ci fib]
-25.0 -30.5 60 -37 -37 опасность
обморожения
1016.3 1003.1
09 19.03 ЮЗ 2
{10}
50 км 8/3 600 м
[Sc Ac trans Ci fib]
-28.2 -32.0 70 -35 -35 опасность
обморожения
1018.4 1005.1 -23.9
12 19.03 З 4
{9}
50 км 6/3 600 м
[Sc Ac trans Ci fib]
-29.4 -33.1 70 -40 -40 опасность
обморожения
1019.6 1006.4
15 19.03 штиль 0
{8}
50 км 8/4 600 м
[Sc Ac trans Ci fib]
-29.1 -33.7 64 -29 -29 1020.3 1006.9
18 19.03 В 1
{4}
50 км 9/4 600 м
[Sc Ac trans Ci fib]
-29.5 -33.3 69 -34 -34 опасность
обморожения
1021.1 1007.6
21 19.03 З 2
{3}
20 км слаб. снег 10/8 600 м
[Sc Ac trans Cs]
-27.4 -31.2 70 -34 -34 опасность
обморожения
1021.8 1008.4 -29.9 0.2 43
00 20.03 В 2
{5}
4000 м слаб. снег 10/8 600 м
[Sc As op]
-25.5 -30.2 65 -32 -32 опасность
обморожения
1023.4 1009.8
03 20.03 ЮЗ 2
{4}
20 км слаб. снег 10/3 600 м
[Sc Ac trans Cs]
-23.1 -27.8 65 -29 -29 1023.6 1010.4
06 20.03 З 1
{4}
20 км слаб. снег 10/1 600 м
[Sc Ac trans Cs]
-23.0 -28.7 60 -26 -26 1024.8 1011.7
09 20.03 ЮВ 2
{4}
50 км {снег} 6/0
[Ac trans Ci fib]
-29.5 -33.3 69 -37 -37 опасность
обморожения
1027.0 1013.4 -21.0 0.6
12 20.03 В 1
{3}
50 км {снег} 3/0
[Ci fib]
-35.1 -29.0 100 -40 -40 опасность
обморожения
1028.9 1015.0
15 20.03 штиль 0
{2}
50 км ясно -37.6 -41.8 65 -38 -38 опасность
обморожения
1030.0 1016.0
18 20.03 В 1
{2}
50 км ясно -38.6 -42.7 65 -44 -44 опасность
обморожения
1030.3 1016.3
21 20.03 В 1
{3}
50 км ясно -34.7 -39.1 64 -39 -38 опасность
обморожения
1030.2 1016.4 -39.0 43
00 21.03 В 2
{4}
50 км 3/0
[Ci fib]
-27.9 -34.2 55 -35 -32 опасность
обморожения
1028.9 1015.4
03 21.03 В 4
{6}
50 км 4/0
[Ci fib]
-21.8 -28.4 55 -31 -30 опасность
обморожения
1026.8 1013.7
06 21.03 ЮВ 2
{7}
50 км 9/3 600 м
[Sc Ac trans Ci fib]
-20.9 -28.6 50 -27 -27 1026.4 1013.4
09 21.03 В 1
{4}
20 км слаб. снег 10/5 600 м
[Sc Ac trans Cs]
-21.9 -25.1 75 -25 -25 1026.3 1013.2 -20.7 0.2
12 21.03 З 2
{4}
20 км слаб. снег 10/5 600 м
[Sc Ac trans Cs]
-23.2 -26.4 75 -30 -30 1026.6 1013.4
15 21.03 Ю 1
{4}
50 км {снег} 4/0
[Ac trans Ci fib]
-27.8 -30.9 75 -32 -32 опасность
обморожения
1027.5 1014.0
18 21.03 В 1
{2}
50 км {снег} 3/0
[Ci fib]
-32.5 -36.1 70 -37 -37 опасность
обморожения
1028.4 1014.7
21 21.03 ЮВ 1
{2}
50 км ясно -32.3 -35.9 70 -37 -36 опасность
обморожения
1028.6 1014.9 -35.3 0.2 44
00 22.03 В 1
{3}
50 км ясно -22.3 -28.9 55 -26 -22 1027.5 1014.4
03 22.03 ЮВ 3
{5}
50 км ясно -17.9 -24.8 55 -25 -23 1026.2 1013.3
06 22.03 Ю 2
{5}
50 км ясно -19.8 -26.5 55 -26 -25 1025.5 1012.5
09 22.03 ЮВ 1
{5}
50 км ясно -24.8 -28.7 70 -28 -28 1025.4 1012.2 -16.4
12 22.03 штиль 0
{2}
50 км ясно -26.8 -29.3 79 -27 -27 1024.7 1011.4
15 22.03 ЮВ 1
{6}
50 км 3/0
[Ci fib]
-26.2 -29.4 74 -30 -30 1023.8 1010.5
18 22.03 В 2
{6}
50 км 3/0
[Ci fib]
-26.0 -29.8 70 -33 -33 опасность
обморожения
1023.0 1009.7
21 22.03 ЮВ 2
{6}
50 км 3/0
[Ci fib]
-23.5 -28.3 65 -30 -29 1021.8 1008.6 -28.3 44
00 23.03 ЮВ 3
{8}
50 км 3/0
[Ci fib]
-17.5 -24.4 55 -25 -22 1019.9 1007.1
03 23.03 В 4
{9}
50 км ясно -12.2 -20.5 50 -19 -17 1017.6 1005.1
06 23.03 Ю 1
{9}
50 км ясно -12.2 -20.5 50 -14 -14 1016.3 1003.8
09 23.03 ЮЗ 1
{4}
50 км ясно -16.8 -21.8 65 -20 -20 1015.8 1003.1 -10.8
12 23.03 СЗ 1
{3}
50 км ясно -22.0 -26.0 70 -25 -25 1015.5 1002.5
15 23.03 СВ 3
{2}
50 км ясно -22.8 -26.8 70 -31 -31 опасность
обморожения
1014.2 1001.3
18 23.03 В 2
{5}
50 км ясно -24.4 -27.6 75 -31 -31 опасность
обморожения
1013.5 1000.5
21 23.03 В 2
{6}
50 км ясно -23.5 -28.3 65 -30 -29 1012.3 999.3 -26.5 44
00 24.03 СВ 3
{6}
50 км ясно -18.1 -24.9 55 -25 -22 1010.5 997.8
03 24.03 СВ 1
{5}
50 км ясно -10.2 -21.2 40 -12 -9 1008.7 996.4
06 24.03 ЮЗ 2
{4}
50 км 1/0
[Ci fib]
-11.1 -23.6 35 -15 -15 1008.3 995.9
09 24.03 Ю 2
{5}
50 км 1/0
[Ci fib]
-16.3 -22.3 60 -22 -22 1008.8 996.2 -6.5

 

Местоположение метеостанции Островное (Чукотка, Россия): широта 68.12 долгота 164.10 высота над уровнем моря 94 м.

В архиве по умолчанию представлена погода в Островном за последнюю неделю. Архивные данные за месяц целиком и за предыдущие месяцы, начиная с января 2011 года, Вы можете получить, выбрав интересующий диапазон дат из раскрывающегося списка и нажав кнопку "Ввод!".


*Определитесь, кто Вы:
робот инопланетянин человек

Внимание! Время в таблицах - всемирное. Для получения местного времени необходимо прибавить поправку, которая равна 12 ч.

Смотрите также архив погоды в соседних городах и на ближайших метеорологических станциях:

Погода в Билибино (Чукотка, Россия) (96 км)
Погода в Анюйске (Чукотка, Россия) (110 км)
Погода в Константиновской (Чукотка, Россия) (124 км)
Погода в Черском (Якутия, Россия) (133 км)
Погода в Баимке (Чукотка, Россия) (177 км)
Погода в Раучуе (Чукотка, Россия) (181 км)
Погода в Бухте Амбарчик (Чукотка, Россия) (182 км)
Погода в Илирнее (Чукотка, Россия) (187 км)
Погода в Колымской (Якутия, Россия) (235 км)
Погода на Айон Острове (Чукотка, Россия) (252 км)

Пояснения к столбцам:

Ветер - указаны скорость ветра в м/с - средняя за 10 мин, порывы в срок и между сроками (в фигурных скобках) и направление, откуда дует ветер: С - северный, СВ - северо-восточный, В - восточный, ЮВ - юго-восточный, Ю - южный, ЮЗ - юго-западный, З - западный, СЗ - северо-западный.
Видимость - горизонтальная дальность видимости в метрах или километрах. При видимости от 1 до 10 км при отсутствии осадков обычно наблюдается дымка, при ухудшении видимости до 1 км и менее - туман. В сухую погоду видимость может ухудшаться дымом, пылью или мглою.
Явления - указаны атмосферные явления, наблюдавшиеся в срок или в последний час перед сроком; фигурными скобками обозначены явления, наблюдавшиеся между сроками (за 1-3 часа до срока); квадратными скобками обозначены град или гололедные отложения с указанием их диаметра в мм.
Облачность - указаны через наклонную черту общая и нижняя облачность в баллах и высота нижней границы облаков в метрах; квадратными скобками обозначены формы облаков: Ci - перистые, Cs - перисто-слоистые, Cc - перисто-кучевые, Ac - высококучевые, As - высокослоистые, Sc - слоисто-кучевые, Ns - слоисто-дождевые, Cu - кучевые, Cb - кучево-дождевые. Подробнее классификацию облаков см. в Атласе облаков (PDF).
T - Температура воздуха - температура, измеренная на высоте 2 м над землей.
Td - Температура точки росы - температура, при понижении до которой содержащийся в воздухе водяной пар достигнет насыщения.
f - Относительная влажность воздуха - влажноcть воздуха, измеренная на высоте 2 м над землей.
Te - Эффективная температура - температура, которую ощущает одетый по сезону человек в тени. Характеристика душности погоды. При расчете учитывается влияние влажности воздуха и скорости ветра на теплоощущения человека.
Tes - Эффективная температура на солнце - температура, которую ощущает человек, с поправкой на солнечный нагрев. Характеристика знойности погоды. Зависит от высоты солнца над горизонтом, облачности и скорости ветра. Ночью, в пасмурную погоду, а также при ветре 12 м/с и более поправка равна нулю.
P - Атмосферное давление - приведенное к уровню моря атмосферное давление.
Po - Атмосферное давление - измеренное на уровне метеостанции атмосферное давление.
Tmin - Минимальная температура - минимум температуры воздуха на высоте 2 м над землей.
Tmax - Максимальная температура - максимум температуры воздуха на высоте 2 м над землей.
R - Количество осадков - Количество выпавших осадков за период времени, мм. При наведении курсора мыши на число - период времени, за который выпало указанное количество осадков.
R24 - Количество осадков - Количество выпавших осадков за 24 часа, мм.
S - Снежный покров - Высота снежного покрова, см. При наведении курсора мыши на число - состояние снежного покрова и степень покрытия местности в баллах.